CW4517 Weather Reports


time (UTC)temp
C
wind
direction
speed
KPH
gust
KPH
rain 1hr
cm
rain 24hr
cm
rain mn
cm
humidity
%
barometer
mb
20260902060604 25 220 3.2 8.0 0.00 0.00 0.00 82 1011.4
20260902060058 25 178 3.2 8.0 0.00 0.00 0.00 82 1011.4
20260902055813 25 183 3.2 6.4 0.00 0.00 0.00 82 1011.4
20260902055047 25 182 3.2 6.4 0.00 0.00 0.00 82 1011.4
20260902054538 25 192 3.2 6.4 0.00 0.00 0.00 82 1011.4
20260902054255 25 213 1.6 6.4 0.00 0.00 0.00 82 1011.4
20260902053521 25 219 1.6 6.4 0.00 0.00 0.00 81 1011.4
20260902053021 25 169 3.2 6.4 0.00 0.00 0.00 81 1011.4
20260902052600 25 229 3.2 6.4 0.00 0.00 0.00 81 1011.4
20260902051729 25 200 1.6 6.4 0.00 0.00 0.00 82 1011.4
20260902051216 25 208 1.6 6.4 0.00 0.00 0.00 82 1011.4
20260902050450 25 197 1.6 6.4 0.00 0.00 0.00 82 1011.4
20260902045942 25 186 1.6 8.0 0.00 0.00 0.00 82 1011.5
20260902045441 25 223 3.2 8.0 0.00 0.00 0.00 82 1011.5
20260902044935 25 225 1.6 4.8 0.00 0.00 0.00 82 1011.5
20260902044428 25 197 1.6 6.4 0.00 0.00 0.00 82 1011.7
20260902043923 25 255 1.6 6.4 0.00 0.00 0.00 82 1011.7
20260902043417 25 185 1.6 4.8 0.00 0.00 0.00 82 1011.7
20260902042912 25 246 1.6 4.8 0.00 0.00 0.00 82 1011.6
20260902042401 25 181 1.6 3.2 0.00 0.00 0.00 82 1011.6
20260902041858 25 184 1.6 3.2 0.00 0.00 0.00 82 1011.6
20260902041352 25 213 1.6 4.8 0.00 0.00 0.00 82 1011.7
20260902041105 26 207 0.0 4.8 0.00 0.00 0.00 82 1011.7
20260902040341 26 192 0.0 3.2 0.00 0.00 0.00 82 1011.7
20260902035831 26 186 0.0 3.2 0.00 0.00 0.00 82 1011.6
20260902035329 26 223 0.0 3.2 0.00 0.00 0.00 81 1011.6
20260902034822 26 223 1.6 4.8 0.00 0.00 0.00 81 1011.6
20260902034541 26 223 1.6 4.8 0.00 0.00 0.00 81 1011.6
20260902033810 26 223 1.6 4.8 0.00 0.00 0.00 81 1011.6
20260902033305 26 219 3.2 6.4 0.00 0.00 0.00 81 1011.6
20260902032758 26 218 3.2 6.4 0.00 0.00 0.00 81 1011.7
20260902032512 26 225 3.2 6.4 0.00 0.00 0.00 81 1011.7
20260902031746 26 225 3.2 6.4 0.00 0.00 0.00 81 1011.7
20260902031240 26 227 4.8 8.0 0.00 0.00 0.00 81 1011.6
20260902030956 26 234 3.2 8.0 0.00 0.00 0.00 81 1011.6
20260902030229 26 208 3.2 8.0 0.00 0.00 0.00 81 1011.6
20260902025723 26 232 3.2 8.0 0.00 0.00 0.00 81 1011.6
20260902025215 26 234 3.2 8.0 0.00 0.00 0.00 80 1011.6
20260902024713 26 232 3.2 9.7 0.00 0.00 0.00 80 1011.6
20260902024209 26 229 3.2 9.7 0.00 0.00 0.00 80 1011.5
20260902024200 27 225 3.2 6.4 0.00 0.00 0.00 80 1011.5
20260902023209 27 217 3.2 8.0 0.00 0.00 0.00 80 1011.5
20260902022710 27 197 3.2 8.0 0.00 0.00 0.00 80 1011.5
20260902022210 27 224 4.8 8.0 0.00 0.00 0.00 80 1011.5
20260902021710 27 232 4.8 9.7 0.00 0.00 0.00 80 1011.5
20260902021210 27 225 6.4 9.7 0.00 0.00 0.00 79 1011.4
20260902020710 27 221 4.8 9.7 0.00 0.00 0.00 79 1011.4
20260902020205 27 230 4.8 9.7 0.00 0.00 0.00 80 1011.4
20260902015651 27 223 4.8 8.0 0.00 0.00 0.00 80 1011.3
20260902015144 27 219 4.8 8.0 0.00 0.00 0.00 80 1011.3
20260902014637 27 236 3.2 6.4 0.00 0.00 0.00 80 1011.3
20260902014127 27 246 3.2 8.0 0.00 0.00 0.00 80 1011.0
20260902013625 27 209 1.6 8.0 0.00 0.00 0.00 80 1011.0
20260902013119 28 216 1.6 6.4 0.00 0.00 0.00 80 1011.0
20260902012615 28 219 3.2 9.7 0.00 0.00 0.00 80 1010.9
20260902012108 28 221 3.2 9.7 0.00 0.00 0.00 79 1010.9
20260902011603 28 226 1.6 8.0 0.00 0.00 0.00 79 1010.9
20260902011056 28 217 1.6 4.8 0.00 0.00 0.00 79 1010.8
20260902010545 28 231 1.6 4.8 0.00 0.00 0.00 79 1010.8
20260902010043 28 232 1.6 4.8 0.00 0.00 0.00 79 1010.8
20260902005539 29 243 0.0 3.2 0.00 0.00 0.00 78 1010.7
20260902005033 29 211 0.0 3.2 0.00 0.00 0.00 78 1010.7
20260902004526 29 183 0.0 0.0 0.00 0.00 0.00 78 1010.7
20260902004021 30 184 0.0 0.0 0.00 0.00 0.00 77 1010.7
20260902003514 30 204 0.0 0.0 0.00 0.00 0.00 77 1010.7
20260902003226 30 202 0.0 0.0 0.00 0.00 0.00 77 1010.7
20260902002501 30 171 0.0 1.6 0.00 0.00 0.00 76 1010.8
20260902001956 30 205 1.6 8.0 0.00 0.00 0.00 76 1010.8
20260902001450 30 176 1.6 8.0 0.00 0.00 0.00 75 1010.8
20260902000943 31 213 1.6 4.8 0.00 0.08 0.00 74 1010.8
20260902000655 31 213 1.6 4.8 0.00 0.10 0.00 74 1010.8
20260901235931 31 240 0.0 4.8 0.00 0.10 0.00 74 1010.8
20260901235426 31 213 0.0 4.8 0.00 0.10 0.00 74 1010.8
20260901234919 31 234 1.6 6.4 0.00 0.10 0.00 73 1010.8
20260901234904 32 221 1.6 6.4 0.00 0.10 0.00 72 1010.9
20260901233903 32 224 0.0 4.8 0.00 0.10 0.00 71 1010.9
20260901233400 32 198 1.6 4.8 0.00 0.10 0.00 70 1010.9
20260901232855 32 205 3.2 4.8 0.00 0.10 0.00 70 1010.9
20260901232349 32 209 1.6 8.0 0.00 0.10 0.00 69 1010.9
20260901231844 32 196 0.0 8.0 0.00 0.10 0.00 70 1010.9
20260901231334 32 221 1.6 8.0 0.00 0.10 0.00 70 1010.9
20260901230830 32 224 3.2 9.7 0.00 0.10 0.00 69 1010.9
20260901230327 33 244 3.2 9.7 0.00 0.10 0.00 69 1010.9
20260901225826 33 221 3.2 8.0 0.00 0.10 0.00 69 1010.8
20260901225327 33 200 4.8 9.7 0.00 0.10 0.00 68 1010.8
20260901224827 33 234 4.8 12.9 0.00 0.10 0.00 68 1010.8
20260901224326 33 191 4.8 12.9 0.00 0.10 0.00 67 1010.9
20260901223825 33 236 1.6 12.9 0.00 0.10 0.00 66 1010.9
20260901223324 33 225 3.2 12.9 0.00 0.10 0.00 67 1010.9
20260901222828 33 221 4.8 12.9 0.00 0.10 0.00 65 1010.9
20260901222325 33 234 6.4 14.5 0.00 0.10 0.00 67 1010.9
20260901221824 33 240 4.8 14.5 0.00 0.10 0.00 67 1010.9
20260901221326 33 238 4.8 14.5 0.00 0.10 0.00 65 1010.8
20260901220820 33 228 4.8 14.5 0.00 0.10 0.00 65 1010.8
20260901220308 33 180 3.2 14.5 0.00 0.10 0.00 66 1010.8
20260901215756 33 263 4.8 14.5 0.00 0.10 0.00 65 1010.9
20260901215244 33 242 4.8 11.3 0.00 0.10 0.00 66 1010.9
20260901214736 33 232 4.8 11.3 0.00 0.10 0.00 67 1010.9
20260901214229 33 215 3.2 11.3 0.00 0.10 0.00 67 1010.9
20260901213722 33 173 3.2 11.3 0.00 0.10 0.00 67 1010.9
20260901213212 33 186 4.8 12.9 0.00 0.10 0.00 67 1010.9
20260901212710 33 230 4.8 12.9 0.00 0.10 0.00 67 1010.9
20260901212205 33 217 4.8 11.3 0.00 0.10 0.00 66 1010.9
20260901211658 33 228 4.8 9.7 0.00 0.10 0.00 65 1010.9
20260901211152 33 247 6.4 11.3 0.00 0.10 0.00 65 1010.9
20260901210646 33 227 6.4 14.5 0.00 0.10 0.00 65 1010.9
20260901210140 33 217 6.4 14.5 0.00 0.10 0.00 66 1010.9
20260901205851 33 206 4.8 14.5 0.00 0.10 0.00 65 1011.0
20260901205129 34 211 3.2 12.9 0.00 0.10 0.00 65 1011.0
20260901204623 33 182 4.8 12.9 0.00 0.10 0.00 66 1011.0
20260901204118 33 215 6.4 16.1 0.00 0.10 0.00 66 1011.1
20260901203611 33 225 4.8 16.1 0.00 0.10 0.00 66 1011.1
20260901203101 33 231 6.4 17.7 0.00 0.10 0.00 67 1011.1
20260901202559 33 224 6.4 17.7 0.00 0.10 0.00 66 1011.1
20260901202054 33 311 6.4 17.7 0.00 0.10 0.00 66 1011.1
20260901201546 33 165 6.4 17.7 0.00 0.10 0.00 66 1011.1
20260901201040 33 199 4.8 12.9 0.00 0.10 0.00 64 1011.2
20260901200534 33 200 4.8 12.9 0.00 0.10 0.00 66 1011.2
20260901200028 33 159 6.4 14.5 0.00 0.10 0.00 67 1011.2
20260901195517 33 208 8.0 17.7 0.00 0.10 0.00 66 1011.3
20260901195016 33 252 8.0 17.7 0.00 0.10 0.00 67 1011.3
20260901194512 33 214 6.4 17.7 0.00 0.10 0.00 67 1011.3
20260901194006 33 290 4.8 14.5 0.00 0.10 0.00 68 1011.4
20260901193458 33 190 4.8 14.5 0.00 0.10 0.00 67 1011.4
20260901192947 33 240 4.8 12.9 0.00 0.10 0.00 67 1011.4
20260901192446 33 186 6.4 12.9 0.00 0.10 0.00 67 1011.4
20260901191941 33 201 6.4 14.5 0.00 0.10 0.00 67 1011.4
20260901191434 32 223 6.4 14.5 0.00 0.10 0.00 68 1011.6
20260901191202 32 233 6.4 14.5 0.00 0.10 0.00 68 1011.6
20260901190423 32 247 6.4 14.5 0.00 0.10 0.00 69 1011.6
20260901190135 32 239 8.0 16.1 0.00 0.10 0.00 70 1011.7
20260901185407 32 243 9.7 16.1 0.00 0.10 0.00 70 1011.7
20260901184905 32 228 8.0 16.1 0.00 0.10 0.00 69 1011.7
20260901184359 32 210 8.0 16.1 0.00 0.10 0.00 68 1011.8
20260901183852 32 203 6.4 14.5 0.00 0.10 0.00 69 1011.8
20260901183350 32 236 6.4 12.9 0.00 0.10 0.00 71 1011.8
20260901183112 32 207 6.4 12.9 0.00 0.10 0.00 71 1011.8
20260901182350 32 232 6.4 12.9 0.00 0.10 0.00 70 1011.8
20260901181850 32 234 6.4 17.7 0.00 0.10 0.00 71 1011.8
20260901181349 31 244 6.4 17.7 0.00 0.10 0.00 72 1011.8
20260901180854 31 231 6.4 17.7 0.00 0.10 0.00 71 1011.8
20260901180350 31 199 8.0 17.7 0.00 0.10 0.00 72 1011.8
20260901175850 31 220 8.0 16.1 0.00 0.10 0.00 72 1011.9
20260901175351 31 246 6.4 16.1 0.00 0.10 0.00 72 1011.9
20260901174845 31 203 6.4 16.1 0.00 0.10 0.00 73 1011.9
20260901174333 31 237 8.0 16.1 0.00 0.10 0.00 74 1011.9
20260901173822 30 205 8.0 16.1 0.00 0.10 0.00 73 1011.9
20260901173314 31 262 6.4 14.5 0.00 0.10 0.00 73 1011.9
20260901172807 31 233 6.4 14.5 0.00 0.10 0.00 72 1011.9
20260901172304 30 168 6.4 12.9 0.00 0.10 0.00 75 1011.9
20260901172013 30 225 6.4 14.5 0.00 0.10 0.00 75 1011.9
20260901171507 30 213 6.4 14.5 0.00 0.10 0.00 74 1012.1
20260901170954 30 229 6.4 14.5 0.00 0.10 0.00 74 1012.1
20260901170238 30 233 6.4 14.5 0.00 0.10 0.00 73 1012.1
20260901165731 30 238 6.4 12.9 0.00 0.10 0.00 74 1012.2
20260901165226 30 167 4.8 11.3 0.00 0.10 0.00 74 1012.2
20260901164716 30 228 6.4 14.5 0.00 0.10 0.00 74 1012.2
20260901164701 30 188 6.4 14.5 0.00 0.10 0.00 74 1012.4
20260901163708 30 233 6.4 14.5 0.00 0.10 0.00 75 1012.4
20260901163201 30 237 4.8 12.9 0.00 0.10 0.00 75 1012.4
20260901162658 30 217 4.8 11.3 0.00 0.10 0.00 75 1012.3
20260901162146 29 246 4.8 12.9 0.00 0.10 0.00 75 1012.3
20260901161640 29 200 4.8 14.5 0.00 0.10 0.00 75 1012.3
20260901161138 29 230 4.8 14.5 0.00 0.10 0.00 77 1012.3
20260901160631 28 219 6.4 12.9 0.00 0.10 0.00 76 1012.3
20260901160125 28 167 4.8 12.9 0.00 0.10 0.00 76 1012.3
20260901155619 28 209 4.8 11.3 0.00 0.10 0.00 76 1012.3
20260901155112 28 231 4.8 12.9 0.00 0.10 0.00 78 1012.3
20260901154602 28 223 4.8 12.9 0.00 0.10 0.00 77 1012.3
20260901154101 28 198 3.2 6.4 0.00 0.10 0.00 78 1012.2
20260901154043 27 204 3.2 8.0 0.00 0.10 0.00 79 1012.2
20260901153050 27 236 4.8 12.9 0.00 0.10 0.00 80 1012.2
20260901152538 27 194 4.8 12.9 0.00 0.10 0.00 78 1012.1
20260901152037 27 171 3.2 9.7 0.00 0.10 0.00 79 1012.1
20260901152021 27 178 4.8 12.9 0.00 0.10 0.00 81 1012.1
20260901151249 27 231 6.4 12.9 0.00 0.10 0.00 80 1012.0
20260901150518 26 248 6.4 12.9 0.00 0.10 0.00 80 1012.0
20260901150014 26 220 4.8 11.3 0.00 0.10 0.00 82 1012.0
20260901145508 26 229 4.8 12.9 0.00 0.10 0.00 81 1012.0
20260901145002 26 223 4.8 12.9 0.00 0.10 0.00 81 1012.0
20260901144450 26 231 4.8 11.3 0.00 0.10 0.00 81 1012.0
20260901143950 26 220 4.8 9.7 0.00 0.10 0.00 81 1012.0
20260901143443 26 223 6.4 11.3 0.00 0.10 0.00 83 1012.0
20260901142936 26 234 4.8 12.9 0.00 0.10 0.00 82 1012.0
20260901142431 25 223 4.8 12.9 0.00 0.10 0.00 83 1012.0
20260901141925 25 202 4.8 11.3 0.00 0.10 0.00 84 1012.0
20260901141511 25 223 4.8 14.5 0.00 0.10 0.00 84 1011.9
20260901140423 25 235 3.2 9.7 0.00 0.10 0.00 85 1011.9
20260901140405 24 215 4.8 9.7 0.00 0.10 0.00 86 1012.2
20260901135423 24 219 6.4 12.9 0.00 0.10 0.00 86 1012.2
20260901134923 24 231 4.8 12.9 0.00 0.10 0.00 87 1012.2
20260901134422 23 236 4.8 11.3 0.00 0.10 0.00 88 1012.2
20260901133926 23 241 4.8 11.3 0.00 0.10 0.00 89 1012.2
20260901133425 23 217 3.2 8.0 0.00 0.10 0.00 89 1012.2
20260901132920 23 186 3.2 8.0 0.00 0.10 0.00 89 1012.4
20260901132404 23 229 3.2 6.4 0.00 0.10 0.00 89 1012.4
20260901131852 23 223 3.2 6.4 0.00 0.10 0.00 89 1012.4
20260901131347 23 227 4.8 11.3 0.00 0.10 0.00 89 1012.4
20260901131106 23 220 4.8 11.3 0.00 0.10 0.00 89 1012.4
20260901130330 23 233 4.8 9.7 0.00 0.10 0.00 89 1012.4
20260901125829 23 223 3.2 9.7 0.00 0.10 0.00 89 1012.3
20260901125543 23 235 4.8 8.0 0.00 0.10 0.00 89 1012.3
20260901124818 23 194 4.8 9.7 0.00 0.10 0.00 89 1012.3
20260901124537 23 221 4.8 11.3 0.00 0.10 0.00 89 1012.2
20260901123805 22 247 4.8 11.3 0.00 0.10 0.00 90 1012.2
20260901123300 22 197 4.8 11.3 0.00 0.10 0.00 90 1012.2
20260901122748 22 227 4.8 9.7 0.00 0.10 0.00 90 1011.9
20260901122246 22 279 3.2 6.4 0.00 0.10 0.00 90 1011.9
20260901121740 22 180 1.6 6.4 0.00 0.10 0.00 90 1011.9
20260901121234 22 186 3.2 9.7 0.00 0.10 0.00 90 1011.9
20260901120728 22 219 3.2 9.7 0.00 0.10 0.00 90 1011.9
20260901120218 22 215 3.2 8.0 0.00 0.10 0.00 90 1011.9
20260901115716 22 225 3.2 8.0 0.00 0.10 0.00 91 1011.6
20260901115212 22 221 3.2 9.7 0.00 0.10 0.00 91 1011.6
20260901114930 22 216 3.2 9.7 0.00 0.10 0.00 91 1011.6
20260901114159 22 185 3.2 6.4 0.00 0.10 0.00 91 1011.6
20260901113652 22 163 3.2 8.0 0.00 0.10 0.00 91 1011.6
20260901113147 22 167 3.2 8.0 0.00 0.10 0.00 91 1011.6
20260901112635 22 208 3.2 6.4 0.00 0.10 0.00 91 1011.4
20260901112134 22 220 1.6 6.4 0.00 0.10 0.00 91 1011.4
20260901111629 22 211 1.6 6.4 0.00 0.10 0.00 91 1011.4
20260901111123 22 216 1.6 6.4 0.00 0.10 0.00 91 1011.3
20260901110617 22 181 1.6 8.0 0.00 0.10 0.00 91 1011.3
20260901110330 22 186 1.6 8.0 0.00 0.10 0.00 91 1011.3
20260901105604 22 220 1.6 4.8 0.00 0.10 0.00 91 1011.4
20260901105100 22 209 3.2 6.4 0.00 0.10 0.00 90 1011.4
20260901104552 22 213 3.2 6.4 0.00 0.10 0.00 90 1011.4
20260901104047 22 197 3.2 8.0 0.00 0.10 0.00 90 1010.8
20260901103537 23 202 3.2 8.0 0.00 0.10 0.00 89 1010.8
20260901103036 23 90 1.6 4.8 0.00 0.10 0.00 89 1010.8
20260901102528 23 194 1.6 6.4 0.00 0.10 0.00 88 1011.5
20260901102112 23 233 1.6 6.4 0.00 0.10 0.00 88 1011.5
20260901101020 23 231 1.6 6.4 0.00 0.10 0.00 88 1011.4
20260901100521 23 255 1.6 6.4 0.00 0.10 0.00 88 1011.4
20260901100019 23 221 0.0 3.2 0.00 0.10 0.00 88 1011.4
20260901095517 23 218 1.6 4.8 0.00 0.10 0.00 88 1011.2
20260901095018 23 218 1.6 4.8 0.00 0.10 0.00 88 1011.2
20260901094518 23 227 1.6 4.8 0.00 0.10 0.00 88 1011.2
20260901094018 23 227 1.6 9.7 0.00 0.10 0.00 88 1010.9
20260901093739 23 212 3.2 9.7 0.00 0.10 0.00 88 1010.9
20260901093019 23 222 1.6 6.4 0.00 0.10 0.00 88 1010.9
20260901092512 23 227 1.6 6.4 0.00 0.10 0.00 88 1010.9
20260901092000 23 216 1.6 4.8 0.00 0.10 0.00 88 1010.9
20260901091447 23 201 1.6 4.8 0.00 0.10 0.00 88 1010.9
20260901090938 23 218 1.6 4.8 0.00 0.10 0.00 87 1010.9
20260901090433 23 184 1.6 4.8 0.00 0.10 0.00 87 1010.9
20260901085926 23 190 1.6 4.8 0.00 0.10 0.00 87 1011.1
20260901085417 23 194 1.6 8.0 0.00 0.10 0.00 87 1011.1
20260901084913 23 244 3.2 8.0 0.00 0.10 0.00 86 1011.1
20260901084407 23 232 4.8 11.3 0.00 0.10 0.00 86 1010.9
20260901083902 23 213 6.4 11.3 0.00 0.10 0.00 85 1010.9
20260901083356 23 217 6.4 11.3 0.00 0.10 0.00 85 1010.9
20260901082850 23 188 6.4 11.3 0.00 0.10 0.00 84 1010.9
20260901082344 23 207 6.4 11.3 0.00 0.10 0.00 85 1010.9
20260901081832 23 217 4.8 11.3 0.00 0.10 0.00 85 1010.9
20260901081330 23 227 4.8 9.7 0.00 0.10 0.00 85 1010.8
20260901080824 23 221 4.8 11.3 0.00 0.10 0.00 85 1010.8
20260901080314 23 186 4.8 11.3 0.00 0.10 0.00 85 1010.8
20260901080036 23 222 4.8 12.9 0.00 0.10 0.00 85 1010.8
20260901075307 23 221 4.8 12.9 0.00 0.10 0.00 85 1010.8
20260901074759 23 232 6.4 9.7 0.00 0.10 0.00 85 1010.8
20260901074255 23 223 4.8 9.7 0.00 0.10 0.00 85 1010.8
20260901073744 23 215 4.8 9.7 0.00 0.10 0.00 85 1010.8
20260901073238 23 226 4.8 9.7 0.00 0.10 0.00 85 1010.8
20260901072732 23 210 4.8 9.7 0.00 0.10 0.00 85 1010.8
20260901072231 23 232 4.8 9.7 0.00 0.10 0.00 85 1010.8
20260901071723 23 215 4.8 9.7 0.00 0.10 0.00 85 1010.8
20260901071218 23 213 6.4 12.9 0.00 0.10 0.00 85 1010.7
20260901070712 23 229 6.4 12.9 0.00 0.10 0.00 85 1010.7
20260901070201 23 236 4.8 9.7 0.00 0.10 0.00 85 1010.7
20260901065701 23 224 6.4 11.3 0.00 0.10 0.00 85 1010.7
20260901065238 23 229 6.4 11.3 0.00 0.10 0.00 85 1010.7
20260901064141 24 239 6.4 11.3 0.00 0.10 0.00 85 1010.4
20260901063631 24 248 6.4 11.3 0.00 0.10 0.00 84 1010.4
20260901063129 24 234 6.4 11.3 0.00 0.10 0.00 84 1010.4
20260901062622 24 216 6.4 12.9 0.00 0.10 0.00 84 1010.7
20260901062116 24 213 6.4 11.3 0.00 0.10 0.00 84 1010.7
20260901061610 24 216 6.4 11.3 0.00 0.10 0.00 84 1010.7
20260901061059 24 250 4.8 11.3 0.00 0.10 0.00 84 1010.7